Content
SEND FEEDBACK

Daily
Averages
Monthly
Summary
United States of America

AGANA, GUAM


Home > North America > United States > Guam
Elevation: 246 feet     Latitude: 13 29N     Longitude: 144 48E

WEATHER
 
SELECT A DAY
Number of Records: 209,106;   Date Range: 1/1/95 - 8/12/14
 
SHARE

PRINT THIS DATA

[ ← Previous Day ]
WEATHER ALMANAC - MARCH 19, 2013
[ Next Day → ]
[ °C ]   °F
Weather ElementAverageHighLow
Temperature82.2 °F87.1 °F (1:54 pm)79 °F (6:54 pm)
Dewpoint75.8 °F77 °F (2:46 am)73 °F (12:54 pm)
Humidity81.1 %90 % (7:54 pm)65 % (12:54 pm)
Barometer29.88 in29.96 in (9:33 am)29.83 in (3:54 am)
Wind Speed10.6 mph16.1 mph (1:54 am)
Wind Gust26.5 mph (1:54 am)
Weather ElementAverage
Visibility9.2 mi
Wind DirectionE (95.4 °)

Weather ElementTotal
Precipitation0.34 in
Cooling Degree Days18.1 (Base 65)
Growing Degree Days33.1 (Base 50)
Averaged from 39 records on March 19, 2013
WEATHER CONDITIONS BREAKOUT
WIND DIRECTION BREAKOUT
WEATHER BY HOUR - MARCH 19, 2013
[ °C ]   °F
Local TimeTemperatureDewpointHumidityBarometerVisibilityWind DirectionWind SpeedGust SpeedPrecipitationEventsConditions
12:54 AM80.1 °F75.9 °F87 %29.87 in8.0 miENE (70°)12.7 mph0.02 inRainLight Rain
1:54 AM80.1 °F75.9 °F87 %29.85 in9.0 miEast (90°)16.1 mph26.5 mph0.01 inRainLight Rain
2:36 AM80.6 °F75.2 °F84 %29.86 in10.0 miEast (90°)10.4 mph0.00 inMostly Cloudy
2:46 AM80.6 °F77.0 °F89 %29.86 in10.0 miEast (90°)6.9 mph0.00 inMostly Cloudy
2:54 AM81.0 °F77.0 °F88 %29.84 in10.0 miEast (90°)10.4 mph0.00 inMostly Cloudy
3:09 AM80.6 °F77.0 °F89 %29.85 in10.0 miEast (90°)10.4 mphMostly Cloudy
3:31 AM80.6 °F75.2 °F84 %29.85 in10.0 miESE (110°)10.4 mphScattered Clouds
3:54 AM81.0 °F75.9 °F85 %29.83 in10.0 miEast (90°)8.1 mphScattered Clouds
4:07 AM80.6 °F75.2 °F84 %29.85 in10.0 miEast (90°)8.1 mphMostly Cloudy
4:40 AM80.6 °F77.0 °F89 %29.85 in10.0 miEast (90°)11.5 mphScattered Clouds
4:54 AM81.0 °F75.9 °F85 %29.84 in10.0 miEast (90°)10.4 mphPartly Cloudy
5:54 AM81.0 °F75.9 °F85 %29.86 in10.0 miEast (100°)6.9 mphPartly Cloudy
6:54 AM81.0 °F75.9 °F85 %29.88 in10.0 miEast (90°)9.2 mphPartly Cloudy
7:54 AM82.9 °F75.9 °F79 %29.90 in10.0 miEast (100°)11.5 mphScattered Clouds
8:37 AM82.4 °F75.2 °F79 %29.94 in10.0 miESE (110°)13.8 mphPartly Cloudy
8:54 AM84.0 °F75.9 °F76 %29.92 in10.0 miESE (110°)11.5 mphMostly Cloudy
9:33 AM84.2 °F75.2 °F74 %29.96 in10.0 miEast (100°)8.1 mphMostly Cloudy
9:54 AM84.9 °F75.9 °F74 %29.93 in10.0 miEast (90°)12.7 mphMostly Cloudy
10:54 AM86.0 °F75.9 °F72 %29.91 in10.0 miEast (90°)13.8 mphMostly Cloudy
11:49 AM84.2 °F75.2 °F74 %29.92 in10.0 miEast (100°)15.0 mphMostly Cloudy
11:54 AM84.9 °F75.9 °F74 %29.90 in10.0 miEast (100°)15.0 mph20.7 mphMostly Cloudy
12:07 PM84.2 °F75.2 °F74 %29.91 in10.0 miEast (100°)13.8 mphScattered Clouds
12:54 PM86.0 °F73.0 °F65 %29.88 in10.0 miESE (120°)10.4 mph18.4 mph0.00 inClear
1:54 PM87.1 °F75.9 °F69 %29.85 in10.0 miESE (120°)11.5 mph19.6 mphPartly Cloudy
2:17 PM84.2 °F77.0 °F79 %29.87 in2.5 miESE (110°)15.0 mph24.2 mph0.00 inRainRain
2:22 PM82.4 °F75.2 °F79 %29.87 in5.0 miESE (110°)11.5 mph24.2 mph0.03 inRainLight Rain
2:54 PM82.9 °F77.0 °F82 %29.84 in10.0 miEast (90°)12.7 mph0.03 inPartly Cloudy
3:54 PM84.9 °F75.9 °F74 %29.83 in10.0 miESE (110°)13.8 mph21.9 mphPartly Cloudy
4:44 PM84.2 °F75.2 °F74 %29.87 in10.0 miEast (90°)11.5 mphMostly Cloudy
4:54 PM84.9 °F75.9 °F74 %29.85 in10.0 miEast (100°)12.7 mph18.4 mphMostly Cloudy
5:01 PM80.6 °F73.4 °F79 %29.88 in2.5 miEast (100°)8.1 mph20.7 mph0.03 inRainHeavy Rain
5:12 PM80.6 °F75.2 °F84 %29.88 in10.0 miEast (90°)8.1 mph0.04 inRainLight Rain
5:54 PM81.0 °F75.9 °F85 %29.88 in6.0 miEast (80°)8.1 mph0.06 inRainRain
6:54 PM79.0 °F75.0 °F88 %29.90 in6.0 miEast (90°)9.2 mph0.08 inRainRain
7:54 PM80.1 °F77.0 °F90 %29.91 in10.0 miEast (90°)3.5 mph0.04 inClear
8:54 PM80.1 °F75.9 °F87 %29.93 in10.0 miEast (90°)8.1 mph0.00 inScattered Clouds
9:54 PM80.1 °F75.0 °F85 %29.93 in10.0 miEast (80°)6.9 mphScattered Clouds
10:54 PM81.0 °F75.9 °F85 %29.93 in10.0 miEast (80°)8.1 mphClear
11:54 PM81.0 °F77.0 °F88 %29.92 in10.0 miEast (90°)6.9 mph0.00 inRainLight Rain
Hourly data recorded from PGUM, located miles away from Agana, Guam







STORIES FROM OUR PARTNERS